Location: Northam
(31.6525°S, 116.6655°E)
Time: 06:55:18
(UTC+08:00)

Envisat - Visible Passes

Search period start: 28 July 2021 00:00
Search period end: 07 August 2021 00:00
Orbit: 764 x 766 km, 98.2° (Epoch: 27 July)

Date Brightness Start Highest point End Pass type
(mag) Time Alt. Az. Time Alt. Az. Time Alt. Az.
28 Jul 5.3 03:55:59 10° ENE 03:58:15 20° E 03:58:15 20° E visible
28 Jul 3.8 05:34:30 10° NNW 05:38:27 29° WNW 05:38:27 29° WNW visible
29 Jul 3.1 04:56:55 10° N 05:01:14 62° NNW 05:01:14 62° NNW visible
29 Jul 5.8 18:52:12 10° SW 18:54:32 13° WSW 18:56:52 10° W visible
30 Jul 4.2 04:20:25 10° NE 04:24:02 38° ENE 04:24:02 38° ENE visible
30 Jul 4.5 06:01:23 10° NW 06:04:14 16° W 06:04:14 16° W visible
30 Jul 4.9 18:13:37 10° S 18:18:05 31° WSW 18:22:31 10° NW visible
31 Jul 5.6 03:45:08 10° ENE 03:46:50 16° E 03:46:50 16° E visible
31 Jul 3.5 05:22:39 10° NNW 05:27:02 38° WNW 05:27:02 38° WNW visible
01 Aug 3.1 04:45:25 10° NNE 04:49:51 68° NNE 04:49:51 68° NNE visible
01 Aug 5.7 18:39:56 10° SSW 18:43:11 17° WSW 18:46:26 10° WNW visible
02 Aug 4.6 04:09:15 10° NE 04:12:40 31° E 04:12:40 31° E visible
02 Aug 4.2 05:49:04 10° NW 05:52:51 21° W 05:52:51 21° W visible
02 Aug 4.5 18:01:54 10° S 18:06:40 40° WSW 18:11:23 10° NW visible
03 Aug 5.8 03:34:31 10° E 03:35:29 13° E 03:35:29 13° E visible
03 Aug 3.1 05:10:56 10° N 05:15:42 51° WNW 05:15:42 51° WNW visible
04 Aug 3.4 04:34:01 10° NNE 04:38:32 61° ENE 04:38:32 61° ENE visible
04 Aug 4.8 06:17:22 10° WNW 06:18:25 11° W 06:18:44 11° W visible
04 Aug 5.5 18:27:56 10° SSW 18:31:49 22° WSW 18:35:41 10° WNW visible
05 Aug 5.0 03:58:12 10° NE 04:01:22 25° E 04:01:22 25° E visible
05 Aug 3.8 05:37:01 10° NNW 05:41:19 27° W 05:41:35 27° W visible
06 Aug 2.9 04:59:19 10° N 05:04:22 68° W 05:04:26 67° W visible
06 Aug 5.9 18:54:57 10° SW 18:56:52 12° WSW 18:58:46 10° W visible
